EW8080 Weather Reports


time (UTC)temp
C
wind
direction
speed
KPH
gust
KPH
rain 1hr
cm
rain 24hr
cm
rain mn
cm
humidity
%
barometer
mb
20260509011024 10 209 6.4 11.3 0.00 0.00 0.00 71 1012.6
20260509010003 11 208 8.0 11.3 0.00 0.00 0.00 70 1012.3
20260509005003 11 216 8.0 9.7 0.00 0.00 0.00 69 1012.3
20260509004003 11 211 8.0 9.7 0.00 0.00 0.00 69 1012.1
20260509003003 11 214 8.0 12.9 0.00 0.00 0.00 68 1012.0
20260509002003 11 207 8.0 12.9 0.00 0.00 0.00 67 1011.4
20260509001003 12 206 4.8 8.0 0.00 0.00 0.00 66 1011.2
20260509000003 12 197 8.0 12.9 0.00 0.00 0.00 66 1011.1
20260508235003 12 187 8.0 12.9 0.00 0.00 0.00 66 1010.8
20260508234003 12 192 4.8 14.5 0.00 0.00 0.00 63 1010.8
20260508233003 13 182 3.2 16.1 0.00 0.00 0.00 63 1010.8
20260508232003 13 207 8.0 16.1 0.00 0.00 0.00 62 1010.7
20260508231003 13 233 8.0 19.3 0.00 0.00 0.00 62 1010.6
20260508230003 13 212 12.9 20.9 0.00 0.00 0.00 60 1010.4
20260508225003 14 222 8.0 20.9 0.00 0.00 0.00 58 1010.4
20260508224003 14 247 11.3 20.9 0.00 0.00 0.00 46 1010.2
20260508223003 15 246 6.4 20.9 0.00 0.00 0.00 47 1010.3
20260508222003 15 266 6.4 27.4 0.00 0.00 0.00 47 1010.1
20260508221003 15 287 11.3 27.4 0.00 0.00 0.00 45 1010.1
20260508220003 15 326 16.1 30.6 0.00 0.00 0.00 46 1010.1
20260508215003 15 336 19.3 30.6 0.00 0.00 0.00 45 1010.1
20260508214003 15 268 12.9 27.4 0.00 0.00 0.00 47 1010.0
20260508213003 15 245 12.9 27.4 0.00 0.00 0.00 46 1009.8
20260508212003 15 327 14.5 29.0 0.00 0.00 0.00 46 1009.8
20260508211004 15 260 16.1 29.0 0.00 0.00 0.00 53 1009.9
20260508210024 15 287 14.5 29.0 0.00 0.00 0.00 54 1009.8
20260508205003 13 237 11.3 27.4 0.00 0.00 0.00 60 1009.8
20260508204025 13 240 12.9 30.6 0.00 0.00 0.00 59 1009.9
20260508203003 14 238 22.5 38.6 0.00 0.00 0.00 57 1009.8
20260508202003 15 238 22.5 49.9 0.00 0.00 0.00 54 1009.6
20260508201024 15 225 22.5 49.9 0.00 0.00 0.00 52 1009.2
20260508200002 15 241 20.9 35.4 0.00 0.00 0.00 49 1009.0
20260508195003 16 229 11.3 27.4 0.00 0.00 0.00 53 1009.0
20260508194002 16 259 17.7 37.0 0.00 0.00 0.00 55 1008.8
20260508193004 16 211 19.3 37.0 0.00 0.00 0.00 55 1008.7
20260508192003 16 204 19.3 33.8 0.00 0.00 0.00 53 1008.7
20260508191003 17 194 20.9 37.0 0.00 0.00 0.00 50 1008.5
20260508190003 17 206 24.1 38.6 0.00 0.00 0.00 51 1008.8
20260508185003 17 208 22.5 45.1 0.00 0.00 0.00 51 1008.8
20260508184003 17 210 17.7 45.1 0.00 0.00 0.00 48 1008.6
20260508183003 17 208 19.3 37.0 0.00 0.00 0.00 45 1008.8
20260508182003 17 211 17.7 37.0 0.00 0.00 0.00 49 1008.9
20260508181003 18 214 20.9 38.6 0.00 0.00 0.00 48 1009.1
20260508180003 17 220 14.5 38.6 0.00 0.00 0.00 48 1009.0
20260508175024 18 220 20.9 37.0 0.00 0.00 0.00 43 1008.9
20260508174003 18 214 19.3 32.2 0.00 0.00 0.00 46 1008.8
20260508173003 18 212 17.7 32.2 0.00 0.00 0.00 45 1009.2
20260508172024 18 215 20.9 32.2 0.00 0.00 0.00 44 1009.2
20260508171003 18 195 17.7 35.4 0.00 0.00 0.00 44 1009.1
20260508170003 17 211 17.7 35.4 0.00 0.00 0.00 46 1009.3
20260508165003 18 196 19.3 32.2 0.00 0.00 0.00 42 1009.4
20260508164003 18 238 16.1 30.6 0.00 0.00 0.00 36 1009.5
20260508163024 18 255 16.1 30.6 0.00 0.00 0.00 39 1009.4
20260508162003 17 266 16.1 24.1 0.00 0.00 0.00 38 1009.5
20260508161003 17 239 9.7 35.4 0.00 0.00 0.00 36 1009.9
20260508160003 17 239 12.9 35.4 0.00 0.00 0.00 35 1010.1
20260508155003 17 280 22.5 32.2 0.00 0.00 0.00 33 1010.0
20260508154003 18 219 11.3 32.2 0.00 0.00 0.00 36 1010.0
20260508153003 18 260 22.5 32.2 0.00 0.00 0.00 34 1010.1
20260508152003 18 238 9.7 24.1 0.00 0.00 0.00 38 1010.1
20260508151004 18 243 11.3 24.1 0.00 0.00 0.00 35 1010.2
20260508150003 17 267 8.0 24.1 0.00 0.00 0.00 34 1010.2
20260508145003 16 258 12.9 24.1 0.00 0.00 0.00 39 1010.3
20260508144003 17 306 9.7 29.0 0.00 0.00 0.00 36 1010.3
20260508143003 16 293 17.7 35.4 0.00 0.00 0.00 36 1010.3
20260508142003 16 315 17.7 35.4 0.00 0.00 0.00 34 1010.3
20260508141003 16 324 14.5 30.6 0.00 0.00 0.00 35 1010.3
20260508140003 16 239 12.9 22.5 0.00 0.00 0.00 41 1010.5
20260508135003 16 278 9.7 27.4 0.00 0.00 0.00 40 1010.4
20260508134024 15 280 12.9 27.4 0.00 0.00 0.00 44 1010.7
20260508133003 15 277 14.5 22.5 0.00 0.00 0.00 46 1010.5
20260508132003 13 283 11.3 22.5 0.00 0.00 0.00 44 1010.8
20260508131003 13 295 14.5 22.5 0.00 0.00 0.00 48 1010.5
20260508130003 12 250 9.7 16.1 0.00 0.03 0.00 50 1010.8
20260508125003 13 228 8.0 16.1 0.00 0.03 0.00 51 1010.6
20260508124003 13 284 9.7 16.1 0.00 0.03 0.00 50 1010.6
20260508123003 12 185 8.0 16.1 0.00 0.03 0.00 56 1010.6
20260508122003 11 254 8.0 11.3 0.00 0.05 0.00 58 1010.7
20260508121003 10 239 8.0 14.5 0.00 0.08 0.00 61 1010.6
20260508120003 10 250 8.0 14.5 0.00 0.10 0.00 63 1010.6
20260508115003 9 256 8.0 12.9 0.00 0.13 0.00 63 1010.8
20260508114003 9 270 3.2 14.5 0.00 0.13 0.00 64 1010.9
20260508113024 8 315 9.7 14.5 0.00 0.13 0.00 64 1010.8
20260508112003 8 303 3.2 6.4 0.00 0.18 0.00 64 1010.7
20260508111003 8 216 1.6 9.7 0.00 0.23 0.00 66 1010.4
20260508110003 7 289 4.8 9.7 0.00 0.23 0.00 67 1010.6
20260508105003 7 247 3.2 9.7 0.00 0.23 0.00 69 1010.4
20260508104003 7 243 4.8 9.7 0.00 0.25 0.00 68 1010.3
20260508103004 7 275 6.4 9.7 0.00 0.28 0.00 67 1010.2
20260508102003 7 255 4.8 12.9 0.00 0.28 0.00 67 1010.1
20260508101003 6 261 4.8 12.9 0.00 0.30 0.00 69 1010.0
20260508100003 6 252 4.8 8.0 0.00 0.33 0.00 66 1010.0
20260508095003 6 247 6.4 8.0 0.00 0.36 0.00 66 1009.9
20260508094003 6 261 4.8 8.0 0.00 0.36 0.00 66 1009.8
20260508093025 6 253 3.2 11.3 0.00 0.36 0.00 65 1009.8
20260508092003 6 242 4.8 11.3 0.00 0.43 0.00 66 1009.8
20260508091024 6 257 9.7 11.3 0.00 0.48 0.00 65 1009.6
20260508090003 6 255 4.8 8.0 0.00 0.53 0.00 64 1009.6
20260508085002 6 243 4.8 6.4 0.00 0.58 0.00 62 1009.2
20260508084003 7 247 4.8 6.4 0.00 0.61 0.00 62 1009.1
20260508083003 7 247 3.2 6.4 0.00 0.69 0.00 60 1009.2
20260508082003 7 224 3.2 8.0 0.00 0.81 0.00 59 1008.9
20260508081003 7 280 4.8 8.0 0.00 1.14 0.00 57 1008.5
20260508080003 7 298 4.8 8.0 0.00 1.27 0.00 57 1008.6
20260508075003 8 306 4.8 8.0 0.00 1.27 0.00 56 1008.6
20260508074003 8 283 0.0 8.0 0.00 1.27 0.00 56 1008.2
20260508073003 8 259 3.2 9.7 0.00 1.27 0.00 56 1008.2
20260508072003 8 337 3.2 11.3 0.00 1.27 0.00 54 1008.1
20260508071003 8 19 4.8 12.9 0.00 1.27 0.00 53 1008.0
20260508070003 8 351 9.7 17.7 0.00 1.27 0.00 53 1008.1
20260508065003 9 19 6.4 17.7 0.00 1.27 0.00 53 1008.1
20260508064003 9 306 8.0 16.1 0.00 1.27 0.00 53 1008.0
20260508063003 9 340 8.0 19.3 0.00 1.27 0.00 52 1008.0
20260508062003 10 327 9.7 19.3 0.00 1.30 0.00 50 1007.9
20260508061003 10 318 11.3 16.1 0.00 1.30 0.00 51 1008.0
20260508060003 10 336 11.3 14.5 0.00 1.30 0.00 51 1007.8
20260508055004 10 358 6.4 14.5 0.00 1.30 0.00 49 1007.9
20260508054003 10 334 8.0 16.1 0.00 1.30 0.00 49 1007.9
20260508053004 10 312 8.0 19.3 0.00 1.30 0.00 48 1007.9
20260508052003 11 330 12.9 29.0 0.00 1.30 0.00 47 1008.0
20260508051024 11 341 12.9 30.6 0.00 1.30 0.00 47 1007.9
20260508050003 11 329 11.3 30.6 0.00 1.32 0.00 47 1008.0
20260508045004 11 351 12.9 25.7 0.00 1.32 0.00 48 1007.9
20260508044003 11 340 16.1 24.1 0.00 1.32 0.00 48 1007.8
20260508043025 11 312 12.9 24.1 0.00 1.32 0.00 48 1008.0
20260508042003 11 331 16.1 24.1 0.00 1.32 0.00 48 1007.9
20260508041003 11 337 11.3 24.1 0.00 1.32 0.00 47 1007.9
20260508040003 11 339 12.9 20.9 0.00 1.32 0.00 47 1007.9
20260508035003 11 326 9.7 17.7 0.00 1.32 1.32 48 1008.0
20260508034003 11 313 8.0 17.7 0.00 1.32 1.32 50 1008.0
20260508033003 11 344 9.7 17.7 0.00 1.32 1.32 49 1008.0
20260508032003 11 276 8.0 14.5 0.00 1.32 1.32 51 1008.0
20260508031003 11 22 9.7 12.9 0.00 1.32 1.32 51 1008.2
20260508030003 11 223 8.0 14.5 0.00 1.32 1.32 51 1008.0
20260508025002 11 249 8.0 16.1 0.00 1.32 1.32 50 1008.2
20260508024003 11 302 9.7 19.3 0.00 1.32 1.32 48 1008.1
20260508023003 11 276 9.7 25.7 0.00 1.32 1.32 47 1008.0
20260508022003 11 264 14.5 25.7 0.00 1.32 1.32 48 1008.1
20260508021003 12 312 8.0 20.9 0.00 1.32 1.32 48 1008.0
20260508020003 12 261 12.9 29.0 0.00 1.32 1.32 47 1008.0
20260508015003 12 278 14.5 29.0 0.00 1.32 1.32 46 1008.0
20260508014003 12 296 14.5 20.9 0.00 1.32 1.32 48 1008.0
20260508013003 12 288 9.7 20.9 0.00 1.32 1.32 48 1007.7
20260508012003 12 294 12.9 20.9 0.00 1.32 1.32 47 1007.8